{"data":{"norad_id":66831,"intl_designator":"2025-280L","name":"STARLINK-35788","alt_names":[],"object_type":"PAYLOAD","status":"ACTIVE","operator":null,"country":"US","launch_date":"2025-12-02","launch_site_code":"AFWTR","launch_vehicle":null,"mission":null,"orbit_class":"UNKNOWN","rcs_meters":null,"size_class":null,"mass_kg":null,"dimensions":null,"purposes":["comms"],"wikipedia_slug":null,"has_3d_model":false,"image_url":null,"decayed_at":null,"tle_current":{"epoch":"2026-05-25T03:48:35.858304Z","epoch_age_seconds":54618,"freshness":"FRESH","line1":"1 66831U 25280L   26145.15874836  .00002293  00000+0  19991-3 0  9998","line2":"2 66831  70.0008 141.5148 0004169 263.4267  96.6417 14.98335343 27538","mean_motion":14.98335343,"eccentricity":0.0004169,"inclination_deg":70.0008,"raan_deg":141.5148,"arg_perigee_deg":263.4267,"mean_anomaly_deg":96.6417,"bstar":0.00019991,"rev_number":2753,"period_min":96.106656412229,"perigee_km":569.14183967886,"apogee_km":574.93689673467,"semimajor_km":6950.1763682068,"source":"CELESTRAK","updated_at":"2026-05-25T13:38:21.335784Z"}}}